Weather History for Alexandria, LA

Change the Weather History Date:

Thursday, January 4, 2007

  Actual Average Record
Temperature  
Mean Temperature 58 °F 49 °F  
Max Temperature 62 °F 59 °F 81 °F (1989)
Min Temperature 53 °F 39 °F 11 °F (1911)
Degree Days  
Heating Degree Days 7 16  
Month to date heating degree days 71 64  
Since 1 July heating degree days 776 853  
Growing Degree Days 8 (Base 50)    
Moisture  
Dew Point 56 °F    
Average Humidity 90    
Maximum Humidity 100    
Minimum Humidity 80    
Precipitation  
Precipitation 2.25 in 0.17 in 2.25 in (2007)
Month to date precipitation 2.25 0.58  
Year to date precipitation 2.25 0.58  
Snow  
Snow 0.00 in - 0.00 in ()
Month to date snowfall 0.0  
Since 1 July snowfall 0.0  
Snow Depth 0.00 in    
Sea Level Pressure  
Sea Level Pressure 29.87 in    
Wind  
Wind Speed 7 mph (ESE)    
Max Wind Speed 18 mph    
Max Gust Speed 23 mph    
Visibility 4 miles    
Events Fog , Rain    
T = Trace of Precipitation, MM = Missing Value Source: NWS Daily Summary

Daily Weather History Graph

Daily Weather History Graph

Search for Another Location

Airport:

Trip Planner

Search our weather history database for the weather conditions in past years. The results will help you decide how hot, cold, wet, or windy it might be!

Date:

Astronomy

Jan. 04, 2007 Rise Set
Actual Time 7:09 AM CST 5:20 PM CST
Civil Twilight 6:43 AM CST 5:47 PM CST
Nautical Twilight 6:13 AM CST 6:17 PM CST
Astronomical Twilight 5:43 AM CST 6:46 PM CST
Moon 6:32 PM CST (1/4) 8:16 AM CST (1/4)
Length of Visible Light 11h 04m
Length of Day
10h 10m
Full, 98% of the Moon is Illuminated
Jan 4
Full
Jan 11
Last Quarter
Jan 18
New
Jan 25
First Quarter
Feb 1
Full

Hourly Weather History & Observations

Time (CST) Temp. Dew Point Humidity Pressure Visibility Wind Dir Wind Speed Gust Speed Precip Events Conditions
12:53 AM 53.1 °F 46.9 °F 80% 30.10 in 9.0 mi East 4.6 mph - N/A   Overcast
1:53 AM 53.1 °F 46.9 °F 80% 30.08 in 9.0 mi East 5.8 mph - N/A   Overcast
2:53 AM 53.1 °F 46.9 °F 80% 30.06 in 9.0 mi East 9.2 mph - N/A   Overcast
3:29 AM 53.6 °F 48.2 °F 82% 30.03 in 9.0 mi East 8.1 mph - N/A   Overcast
3:53 AM 53.1 °F 48.0 °F 83% 30.04 in 8.0 mi ESE 8.1 mph - N/A   Overcast
4:06 AM 53.6 °F 48.2 °F 82% 30.02 in 8.0 mi ESE 9.2 mph - N/A   Overcast
4:53 AM 54.0 °F 48.9 °F 83% 30.03 in 8.0 mi ESE 8.1 mph - 0.00 in   Mostly Cloudy
5:32 AM 53.6 °F 48.2 °F 82% 30.01 in 7.0 mi ESE 8.1 mph - N/A   Overcast
5:53 AM 53.1 °F 50.0 °F 89% 30.02 in 4.0 mi ESE 9.2 mph - 0.02 in Rain Light Rain
6:48 AM 55.4 °F 51.8 °F 88% 29.96 in 5.0 mi ESE 12.7 mph - 0.02 in Rain Light Rain
6:53 AM 55.0 °F 52.0 °F 89% 29.97 in 5.0 mi ESE 12.7 mph - 0.02 in Rain Light Rain
7:53 AM 57.9 °F 55.9 °F 93% 29.93 in 5.0 mi SE 18.4 mph - 0.00 in Rain Light Rain
8:53 AM 59.0 °F 57.0 °F 93% 29.95 in 3.0 mi SSE 17.3 mph - 0.06 in Rain Rain
9:03 AM 59.0 °F 57.2 °F 94% 29.94 in 2.5 mi SE 17.3 mph - 0.02 in Rain Rain
9:15 AM 59.0 °F 57.2 °F 94% 29.94 in 3.0 mi SSE 15.0 mph - 0.04 in Rain Rain
9:23 AM 59.0 °F 57.2 °F 94% 29.94 in 2.0 mi SE 12.7 mph - 0.06 in Rain Rain
9:53 AM 60.1 °F 57.9 °F 93% 29.95 in 2.5 mi SE 11.5 mph - 0.15 in Rain Rain
10:26 AM 60.8 °F 57.2 °F 88% 29.91 in 1.0 mi ESE 12.7 mph - 0.16 in Rain Heavy Rain
10:37 AM 60.8 °F 57.2 °F 88% 29.89 in 0.8 mi East 11.5 mph - 0.32 in Rain Heavy Rain
10:44 AM 60.8 °F 57.2 °F 88% 29.90 in 1.8 mi ESE 10.4 mph - 0.35 in Rain Rain
10:51 AM 60.8 °F 57.2 °F 88% 29.89 in 2.0 mi East 6.9 mph - 0.36 in Rain Rain
10:53 AM 60.1 °F 57.9 °F 93% 29.90 in 2.0 mi East 8.1 mph - 0.37 in Rain Rain
10:56 AM 60.8 °F 57.2 °F 88% 29.89 in 1.8 mi East 5.8 mph - 0.02 in Rain Heavy Rain
11:03 AM 60.8 °F 59.0 °F 94% 29.89 in 1.8 mi Variable 3.5 mph - 0.05 in Rain Rain
11:15 AM 60.8 °F 57.2 °F 88% 29.89 in 0.5 mi NW 8.1 mph 23.0 mph 0.31 in Fog , Rain Heavy Rain
11:18 AM 60.8 °F 57.2 °F 88% 29.90 in 0.5 mi North 5.8 mph 23.0 mph 0.32 in Fog , Rain Heavy Rain
11:25 AM 60.8 °F 57.2 °F 88% 29.90 in 2.0 mi Calm Calm - 0.33 in Rain Light Rain
11:28 AM 60.8 °F 57.2 °F 88% 29.90 in 3.0 mi North 3.5 mph - 0.33 in Rain Rain
11:50 AM 60.8 °F 57.2 °F 88% 29.88 in 6.0 mi East 4.6 mph - 0.35 in Rain Light Rain
11:53 AM 60.1 °F 57.9 °F 93% 29.88 in 5.0 mi East 4.6 mph - 0.35 in Rain Light Rain
12:53 PM 60.1 °F 57.9 °F 93% 29.83 in 2.0 mi Calm Calm - 0.14 in Rain Rain
1:06 PM 60.8 °F 57.2 °F 88% 29.83 in 1.2 mi WNW 5.8 mph - 0.06 in Rain Heavy Rain
1:20 PM 60.8 °F 57.2 °F 88% 29.80 in 2.0 mi NE 5.8 mph - 0.14 in Rain Rain
1:33 PM 60.8 °F 57.2 °F 88% 29.79 in 5.0 mi ENE 6.9 mph - 0.16 in Rain Light Rain
1:45 PM 60.8 °F 57.2 °F 88% 29.82 in 1.8 mi SE 5.8 mph - 0.22 in Rain Heavy Rain
1:49 PM 60.8 °F 57.2 °F 88% 29.81 in 0.8 mi ESE 4.6 mph - 0.32 in Rain Heavy Rain
1:53 PM 60.1 °F 59.0 °F 96% 29.81 in 0.5 mi East 8.1 mph - 0.38 in Fog , Rain Heavy Rain
2:08 PM 60.8 °F 59.0 °F 94% 29.80 in 3.0 mi ESE 5.8 mph - 0.06 in Rain Light Rain
2:20 PM 60.8 °F 59.0 °F 94% 29.81 in 3.0 mi ESE 5.8 mph - 0.09 in Rain Rain
2:34 PM 60.8 °F 59.0 °F 94% 29.82 in 2.0 mi Calm Calm - 0.19 in Rain Heavy Rain
2:53 PM 61.0 °F 59.0 °F 93% 29.82 in 2.0 mi East 4.6 mph - 0.32 in Rain Heavy Rain
3:13 PM 60.8 °F 59.0 °F 94% 29.81 in 1.8 mi ESE 4.6 mph - 0.11 in Rain Heavy Rain
3:25 PM 60.8 °F 59.0 °F 94% 29.80 in 2.0 mi SE 3.5 mph - 0.15 in Rain Rain
3:32 PM 60.8 °F 59.0 °F 94% 29.79 in 1.0 mi Calm Calm - 0.17 in Rain Rain
3:49 PM 60.8 °F 60.8 °F 100% 29.77 in 3.0 mi ENE 5.8 mph - 0.20 in Rain Light Rain
3:53 PM 62.1 °F 60.1 °F 93% 29.78 in 5.0 mi ENE 3.5 mph - 0.20 in Rain Light Rain
4:22 PM 60.8 °F 59.0 °F 94% 29.80 in 2.0 mi West 4.6 mph - 0.05 in Rain Rain
4:53 PM 61.0 °F 59.0 °F 93% 29.82 in 1.0 mi West 5.8 mph - 0.09 in Rain Light Rain
5:00 PM 60.8 °F 59.0 °F 94% 29.80 in 3.0 mi West 5.8 mph - 0.01 in Rain Light Rain
5:09 PM 60.8 °F 59.0 °F 94% 29.77 in 0.8 mi NW 9.2 mph - 0.02 in Rain Light Rain
5:50 PM 60.8 °F 59.0 °F 94% 29.79 in 0.8 mi South 3.5 mph - 0.05 in Rain Light Rain
5:53 PM 61.0 °F 59.0 °F 93% 29.80 in 0.8 mi Calm Calm - 0.05 in Rain Light Rain
6:00 PM 60.8 °F 59.0 °F 94% 29.79 in 7.0 mi Calm Calm - 0.01 in Rain Light Rain
6:35 PM 60.8 °F 57.2 °F 88% 29.78 in 1.8 mi Calm Calm - 0.03 in Rain Light Rain
6:42 PM 60.8 °F 57.2 °F 88% 29.78 in 2.0 mi Calm Calm - 0.03 in Rain Light Rain
6:48 PM 59.0 °F 57.2 °F 94% 29.78 in 0.8 mi Calm Calm - 0.03 in   Overcast
6:53 PM 59.0 °F 57.9 °F 96% 29.80 in 0.5 mi Calm Calm - 0.03 in Fog , Rain Light Rain
7:13 PM 59.0 °F 57.2 °F 94% 29.79 in 1.0 mi Calm Calm - 0.02 in Rain Light Rain
7:46 PM 60.8 °F 59.0 °F 94% 29.76 in 3.0 mi East 6.9 mph - 0.02 in Rain Light Rain
7:53 PM 60.1 °F 59.0 °F 96% 29.76 in 9.0 mi East 8.1 mph - 0.02 in Rain Light Rain
8:53 PM 60.1 °F 59.0 °F 96% 29.73 in 10.0 mi ESE 9.2 mph - 0.05 in Rain Light Rain
9:49 PM 60.8 °F 57.2 °F 88% 29.79 in 10.0 mi WSW 10.4 mph - 0.00 in   Mostly Cloudy
9:53 PM 61.0 °F 57.0 °F 87% 29.80 in 10.0 mi WSW 9.2 mph - 0.00 in   Mostly Cloudy
10:16 PM 60.8 °F 57.2 °F 88% 29.79 in 10.0 mi WSW 8.1 mph - N/A   Overcast
10:24 PM 60.8 °F 57.2 °F 88% 29.79 in 10.0 mi SW 8.1 mph - N/A   Overcast
10:53 PM 60.1 °F 57.0 °F 90% 29.79 in 10.0 mi WSW 8.1 mph - N/A   Overcast
11:53 PM 59.0 °F 55.0 °F 87% 29.77 in 10.0 mi WSW 9.2 mph - N/A   Overcast